OneWeb SL0455

operational
NORAD ID: 51645 Int'l Des: 2022-012 Owner: ONEWEBN Country: UK Constellation: oneweb
LEOCIRCULARPOLAR

Über OneWeb SL0455

Beschreibung wird geladen...

Live-Position

3D-Globus wird geladen...

Nächste Überflüge

Höhenverlauf

Altitude vs Time

uPlot chart will show altitude changes over time

Zweizeiliger Elementsatz

1 51645U 22012Z 25261.23497978 .00000247 00000-0 10092-3 0 9991
2 51645 87.5372 348.9915 0015161 310.1025 49.8836 14.23452235187454
Epoch: 18. Sept. 2025 • Age: 17 hours

Aktueller Status

Höhe 825.8 km
Geschwindigkeit 7.44 km/s
Subsatellitenpunkt -58.98°S, 13.11°E
Startdatum 10. Feb. 2022
Alter 3.6 years
Typ internet

Technische Details

Klassifizierung Payload
Masse 148.00 kg
Trockenmasse 140.00 kg
Gesamtmasse 148.00 kg
Länge 1.30 m
Durchmesser 1.00 m
Spannweite 5.00 m
Form Trapezoid+2 pan
Hersteller ONEWUS
Bus-Typ ARROW
Phasenstatus In Orbit
Besitzer/Staat ONEWEBN/UK

Große Konstellationen

Loading constellations...